Flag for India Weather past 2 weeks in Panipat, Haryana, India

Now
81 °F

Partly cloudy.


Feels Like: 82 °F
Forecast: 81 / 103 °F
Wind: 17 mph from West

Location: New Delhi Palam Airport

Current Time: Jun 3, 2015 at 11:23:17 PM

Latest Report: Jun 3, 2015 at 10:30 PM


Visibility: 2 mi

Pressure: 29.77 "Hg

Humidity: 58%

Dew point: 64 °F

Location of PanipatLocation

Historic Weather in Panipat — Graph

°F

Panipat temperature yesterday

Maximum temperature yesterday: 106 °F (at 3:30 PM)
Minimum temperature yesterday: 81 °F (at 5:00 AM)
Average temperature yesterday: 90 °F

Past Weeks' High & Low Weather Summary

 TemperatureHumidityPressure
High115 °F (May 26, 3:30 PM)83% (May 20, 6:00 AM)29.77 "Hg (May 20, 6:00 AM)
Low72 °F (May 20, 5:30 AM)6% (May 26, 3:30 PM)29.42 "Hg (May 23, 6:00 PM)
Average96 °F25%29.60 "Hg
* Reported May 19 10:30 PM — Jun 3 10:30 PM, Panipat, Weather by CustomWeather, © 2015

Note: Actual official high and low records may vary slightly from our data, if they occured in-between our weather recording intervals... More about our weather records

Advertising

Panipat weather history for previous 24 hours

 ConditionsComfort  
Time TempWeatherWind HumidityBarometerVisibility
10:30 PM
Wed, Jun 3
81 °FPartly cloudy.17 mph58%29.77 "Hg2 mi
9:30 PM82 °FPartly cloudy.12 mph55%29.77 "Hg2 mi
8:30 PM84 °FPartly cloudy.12 mph48%29.68 "Hg2 mi
8:00 PM84 °FPartly cloudy.9 mph45%29.68 "Hg2 mi
7:30 PM84 °FBroken clouds.9 mph45%29.65 "Hg2 mi
7:00 PM84 °FBroken clouds.12 mph43%29.65 "Hg2 mi
6:30 PM86 °FBroken clouds.8 mph49%29.68 "Hg2 mi
6:00 PM86 °FBroken clouds.13 mph46%29.68 "Hg2 mi
5:00 PM90 °FBroken clouds.9 mph36%29.68 "Hg2 mi
4:30 PM90 °FBroken clouds.12 mph38%29.68 "Hg2 mi
4:00 PM88 °FBroken clouds.14 mph43%29.68 "Hg2 mi
3:00 PM86 °FBroken clouds.9 mph38%29.71 "Hg2 mi
2:30 PM84 °FBroken clouds.10 mph43%29.71 "Hg1 mi
2:00 PM81 °FThunderstorms. More clouds than sun.10 mph54%29.74 "Hg1 mi
1:30 PM84 °FThunderstorms. Broken clouds.7 mph48%29.71 "Hg1 mi
12:30 PM90 °FBroken clouds.8 mph36%29.71 "Hg2 mi
11:30 AM91 °FBroken clouds.8 mph32%29.71 "Hg1 mi
11:00 AM91 °FBroken clouds.7 mph32%29.71 "Hg1 mi
10:30 AM90 °FBroken clouds.7 mph36%29.71 "Hg1 mi
10:00 AM86 °FBroken clouds.5 mph49%29.71 "Hg1 mi
9:30 AM84 °FBroken clouds.7 mph51%29.71 "Hg1 mi
8:30 AM81 °FBroken clouds.8 mph66%29.74 "Hg1 mi
8:00 AM79 °FBroken clouds.9 mph65%29.74 "Hg1 mi
7:30 AM79 °FThunderstorms. Broken clouds.8 mph61%29.74 "Hg1 mi
7:00 AM77 °FThunderstorms. Broken clouds.7 mph65%29.74 "Hg1 mi
6:00 AM79 °FDrizzle. Partly sunny.2 mph54%29.71 "Hg1 mi
5:30 AM79 °FThunderstorms. Passing clouds.3 mph54%29.68 "Hg2 mi
5:00 AM79 °FThunderstorms. Passing clouds.6 mph61%29.68 "Hg2 mi
4:30 AM79 °FThunderstorms. Passing clouds.6 mph54%29.68 "Hg2 mi
4:00 AM79 °FThunderstorms. Passing clouds.5 mph61%29.68 "Hg2 mi
3:30 AM79 °FThunderstorms. Passing clouds.6 mph51%29.68 "Hg2 mi
3:00 AM82 °FThunderstorms. Passing clouds.6 mph45%29.65 "Hg2 mi
2:30 AM84 °FThunderstorms. Passing clouds.6 mph43%29.65 "Hg2 mi
2:00 AM84 °FThunderstorms. Passing clouds.6 mph40%29.65 "Hg2 mi
1:30 AM84 °FThunderstorms. Passing clouds.12 mph45%29.68 "Hg2 mi
12:30 AM82 °FPassing clouds.3 mph48%29.65 "Hg2 mi
12:00 AM81 °FPassing clouds.6 mph51%29.68 "Hg2 mi
11:30 PM
Tue, Jun 2
81 °FPassing clouds.7 mph51%29.68 "Hg2 mi
11:00 PM81 °FPassing clouds.8 mph51%29.68 "Hg2 mi
Weather by CustomWeather, © 2015

See weather overviewHow to use our weather pages